{"data":{"norad_id":46826,"intl_designator":"2020-078A","name":"GPS BIII-4  (PRN 14)","alt_names":[],"object_type":"PAYLOAD","status":"ACTIVE","operator":null,"country":"US","launch_date":"2020-11-05","launch_site_code":"AFETR","launch_vehicle":null,"mission":null,"orbit_class":"UNKNOWN","rcs_meters":null,"size_class":null,"mass_kg":null,"dimensions":null,"purposes":["earth_obs","nav"],"wikipedia_slug":null,"has_3d_model":false,"image_url":null,"decayed_at":null,"tle_current":{"epoch":"2026-09-19T12:00:05.499360Z","epoch_age_seconds":101128,"freshness":"FRESH","line1":"1 46826U 20078A   26262.50006365 -.00000001  00000+0  00000+0 0  9996","line2":"2 46826  53.9670 206.9567 0076206 208.3875 153.4518  2.00565190 43403","mean_motion":2.0056519,"eccentricity":0.0076206,"inclination_deg":53.967,"raan_deg":206.9567,"arg_perigee_deg":208.3875,"mean_anomaly_deg":153.4518,"bstar":0,"rev_number":4340,"period_min":717.97104971207,"perigee_km":19979.666077806,"apogee_km":20384.475516887,"semimajor_km":26560.207797347,"source":"CELESTRAK","updated_at":"2026-09-20T09:00:46.120500Z"}}}